Location: Peterborough
(44.3091°N, 78.3197°W)
Time: 23:59:52
(UTC-04:00)

Altair - Pass Details

Date: 08 August 2024
Orbit: 1501 x 1682 km, 47.2° (Epoch: 19 September)

Event Time Altitude Azimuth Distance (km) Brightness Sun altitude
Rises 21:37:25 0° 291° (WNW) 4,699 11.8 -11.7°
Reaches altitude 10° 21:41:15 10° 279° (W) 3,690 10.5 -12.2°
Maximum altitude 21:47:59 23° 231° (SW) 2,762 9.0 -13.2°
Drops below altitude 10° 21:54:40 10° 183° (S) 3,640 9.1 -14.1°
Enters shadow 21:57:06 - 174° (S) 4,248 9.4 -14.4°
